Location: Newark
(15.3000°N, 61.3833°W)
Time: 21:14:13
(UTC+00:00)

N. Korean satellite - Visible Passes

Search period start: 20 October 2019 00:00
Search period end: 30 October 2019 00:00
Orbit: 455 x 508 km, 97.2° (Epoch: 20 October)

Date Brightness Start Highest point End Pass type
(mag) Time Alt. Az. Time Alt. Az. Time Alt. Az.
21 Oct 9.2 09:14:37 10° NE 09:17:44 26° E 09:20:52 10° SSE visible
22 Oct 10.5 08:51:29 10° E 08:52:26 11° E 08:53:24 10° ESE visible
22 Oct 10.1 22:19:16 10° SW 22:21:01 13° W 22:22:45 10° WNW visible
24 Oct 7.7 09:31:36 10° NNE 09:35:12 51° E 09:38:48 10° S visible
25 Oct 9.7 09:07:07 10° NE 09:09:55 20° E 09:12:42 10° SSE visible
26 Oct 9.8 22:10:45 10° SW 22:13:07 18° W 22:15:30 10° NW visible
28 Oct 8.4 09:23:53 10° NNE 09:27:20 38° E 09:30:49 10° S visible
29 Oct 10.1 08:59:44 10° ENE 09:02:02 16° E 09:04:19 10° SE visible
